SL-4 R/B (43064 NORAD) Tracking and Keplerian Element Data

This shows tracking and keplerian element data for the satellite.

Feedback or suggestion? Click here.




ElementValue
Catalog43064
NameSL-4 R/B
Epoch Orbit52
Epoch Day354.54571424
Epoch Year2017
RAAN188.2427
Inclination51.639
Eccentricity0.0005612
Argument of Perigee64.7452
Mean Anonmoly295.4767
Mean Motion16.48599011
Decay Rate0.17225168
L11 43064U 17081B 17354.54571424 .17225168 12679-4 24518-3 0 9990
L22 43064 51.6390 188.2427 0005612 64.7452 295.4767 16.48599011 528

Live tracking and technical data element details for SL-4 R/B (NORAD 43064). SL-4 R/B can be tracked NOW for your location showing map with azimuth and elevation plus other details from your city location.

Track the satellite on the map from your city or location and see movement details for azimuth, elevation, latitude, longitude, range, height, and movement on the map or in text.







IsCatalogInMostPopularTable: catalog: 43064, numindb: 136
Update: records affected: 1



GetName: 43064 SL-4 R/B

Hit Count: updated at: Mon, 19 Nov 2018 11:32:19 GMT